Time,TemperatureF,DewpointF,PressureIn,WindDirection,WindDirectionDegrees,WindSpeedMPH,WindSpeedGustMPH,Humidity,HourlyPrecipIn,Conditions,Clouds,dailyrainin,SolarRadiationWatts/m^2,SoftwareType,DateUTC
2013-08-20 00:00:00,72.3,66.5,29.75,NNW,346,8.0,8.0,82,0.00,,---,0.00,0.00,VWS V14.01,2013-08-20 05:00:00,
2013-08-20 00:03:00,72.1,66.3,29.75,North,350,7.0,10.0,82,0.00,,---,0.00,0.00,VWS V14.01,2013-08-20 05:03:00,
2013-08-20 00:05:00,72.1,66.3,29.75,North,0,6.0,10.0,82,0.00,,---,0.00,0.00,VWS V14.01,2013-08-20 05:05:00,
2013-08-20 00:08:00,72.1,66.3,29.75,North,0,5.0,8.0,82,0.00,,---,0.00,0.00,VWS V14.01,2013-08-20 05:08:00,
2013-08-20 00:14:00,72.1,66.3,29.75,North,0,5.0,8.0,82,0.00,,---,0.00,0.00,VWS V14.01,2013-08-20 05:14:00,
2013-08-20 00:15:00,72.1,66.3,29.75,North,0,5.0,11.0,82,0.00,,---,0.00,0.00,VWS V14.01,2013-08-20 05:15:00,
2013-08-20 00:19:00,72.1,66.3,29.75,North,0,6.0,9.0,82,0.00,,---,0.00,0.00,VWS V14.01,2013-08-20 05:19:00,
2013-08-20 00:24:00,72.0,66.2,29.75,North,0,4.0,8.0,82,0.00,,---,0.00,0.00,VWS V14.01,2013-08-20 05:24:00,
2013-08-20 00:29:00,72.0,66.2,29.75,North,0,6.0,11.0,82,0.00,,---,0.00,0.00,VWS V14.01,2013-08-20 05:29:00,
2013-08-20 00:34:00,71.8,66.0,29.75,North,359,7.0,9.0,82,0.00,,---,0.00,0.00,VWS V14.01,2013-08-20 05:34:00,
2013-08-20 00:35:00,71.8,66.0,29.75,North,352,7.0,10.0,82,0.00,,---,0.00,0.00,VWS V14.01,2013-08-20 05:35:00,
2013-08-20 00:39:00,71.8,66.0,29.75,North,350,6.0,10.0,82,0.00,,---,0.00,0.00,VWS V14.01,2013-08-20 05:39:00,
2013-08-20 00:40:00,71.8,66.0,29.75,NNW,347,6.0,10.0,82,0.00,,---,0.00,0.00,VWS V14.01,2013-08-20 05:40:00,
2013-08-20 00:44:00,71.8,66.0,29.75,North,354,5.0,11.0,82,0.00,,---,0.00,0.00,VWS V14.01,2013-08-20 05:44:00,
2013-08-20 00:45:00,71.8,66.0,29.75,North,354,7.0,11.0,82,0.00,,---,0.00,0.00,VWS V14.01,2013-08-20 05:45:00,
2013-08-20 00:49:00,71.8,66.0,29.75,North,357,11.0,11.0,82,0.00,,---,0.00,0.00,VWS V14.01,2013-08-20 05:49:00,
2013-08-20 00:54:00,71.6,65.8,29.75,North,349,8.0,10.0,82,0.00,,---,0.00,0.00,VWS V14.01,2013-08-20 05:54:00,
2013-08-20 00:59:00,71.6,65.8,29.75,North,349,7.0,8.0,82,0.00,,---,0.00,0.00,VWS V14.01,2013-08-20 05:59:00,
2013-08-20 01:00:00,71.6,65.8,29.75,North,0,7.0,10.0,82,0.00,,---,0.00,0.00,VWS V14.01,2013-08-20 06:00:00,
2013-08-20 01:04:00,71.6,65.8,29.75,North,0,5.0,9.0,82,0.00,,---,0.00,0.00,VWS V14.01,2013-08-20 06:04:00,
2013-08-20 01:05:00,71.6,65.8,29.75,North,349,6.0,9.0,82,0.00,,---,0.00,0.00,VWS V14.01,2013-08-20 06:05:00,
2013-08-20 01:09:00,71.6,65.8,29.75,North,350,7.0,10.0,82,0.00,,---,0.00,0.00,VWS V14.01,2013-08-20 06:09:00,
2013-08-20 01:10:00,71.6,65.8,29.75,North,350,7.0,10.0,82,0.00,,---,0.00,0.00,VWS V14.01,2013-08-20 06:10:00,
2013-08-20 01:14:00,71.5,65.7,29.75,North,354,7.0,11.0,82,0.00,,---,0.00,0.00,VWS V14.01,2013-08-20 06:14:00,
2013-08-20 01:15:00,71.5,65.7,29.75,North,0,8.0,11.0,82,0.00,,---,0.00,0.00,VWS V14.01,2013-08-20 06:15:00,
2013-08-20 01:19:00,71.5,65.7,29.75,North,0,6.0,9.0,82,0.00,,---,0.00,0.00,VWS V14.01,2013-08-20 06:19:00,
2013-08-20 01:20:00,71.5,65.7,29.75,North,356,6.0,9.0,82,0.00,,---,0.00,0.00,VWS V14.01,2013-08-20 06:20:00,
2013-08-20 01:24:00,71.5,65.7,29.75,North,0,6.0,8.0,82,0.00,,---,0.00,0.00,VWS V14.01,2013-08-20 06:24:00,
2013-08-20 01:29:00,71.3,65.5,29.75,North,0,10.0,10.0,82,0.00,,---,0.00,0.00,VWS V14.01,2013-08-20 06:29:00,
2013-08-20 01:30:00,71.3,65.5,29.75,North,359,8.0,10.0,82,0.00,,---,0.00,0.00,VWS V14.01,2013-08-20 06:30:00,
2013-08-20 01:34:00,71.3,65.5,29.75,North,350,6.0,11.0,82,0.00,,---,0.00,0.00,VWS V14.01,2013-08-20 06:34:00,
2013-08-20 01:35:00,71.3,65.5,29.75,North,357,5.0,11.0,82,0.00,,---,0.00,0.00,VWS V14.01,2013-08-20 06:35:00,
2013-08-20 01:39:00,71.3,65.5,29.75,NNW,347,7.0,11.0,82,0.00,,---,0.00,0.00,VWS V14.01,2013-08-20 06:39:00,
2013-08-20 01:40:00,71.3,65.9,29.75,NW,313,9.0,11.0,83,0.00,,---,0.00,0.00,VWS V14.01,2013-08-20 06:40:00,
2013-08-20 01:44:00,71.3,65.9,29.75,NNW,347,10.0,12.0,83,0.00,,---,0.00,0.00,VWS V14.01,2013-08-20 06:44:00,
2013-08-20 01:45:00,71.3,65.5,29.74,NNW,347,7.0,12.0,82,0.00,,---,0.00,0.00,VWS V14.01,2013-08-20 06:45:00,
2013-08-20 01:49:00,71.3,65.5,29.74,NW,305,6.0,12.0,82,0.00,,---,0.00,0.00,VWS V14.01,2013-08-20 06:49:00,
2013-08-20 01:50:00,71.3,65.5,29.74,North,352,11.0,12.0,82,0.00,,---,0.00,0.00,VWS V14.01,2013-08-20 06:50:00,
2013-08-20 01:54:00,71.3,65.5,29.74,NNW,329,12.0,12.0,82,0.00,,---,0.00,0.00,VWS V14.01,2013-08-20 06:54:00,
2013-08-20 01:59:00,71.3,65.5,29.74,NNW,347,8.0,16.0,82,0.00,,---,0.00,0.00,VWS V14.01,2013-08-20 06:59:00,
2013-08-20 02:00:00,71.3,65.5,29.74,North,0,8.0,16.0,82,0.00,,---,0.00,0.00,VWS V14.01,2013-08-20 07:00:00,
2013-08-20 02:04:00,71.3,65.5,29.74,North,0,7.0,14.0,82,0.00,,---,0.00,0.00,VWS V14.01,2013-08-20 07:04:00,
2013-08-20 02:09:00,71.3,65.5,29.74,North,0,12.0,12.0,82,0.00,,---,0.00,0.00,VWS V14.01,2013-08-20 07:09:00,
2013-08-20 02:14:00,71.3,65.5,29.74,NNW,347,11.0,16.0,82,0.00,,---,0.00,0.00,VWS V14.01,2013-08-20 07:14:00,
2013-08-20 02:19:00,71.3,65.5,29.74,North,0,7.0,12.0,82,0.00,,---,0.00,0.00,VWS V14.01,2013-08-20 07:19:00,
2013-08-20 02:20:00,71.3,65.5,29.74,North,0,8.0,12.0,82,0.00,,---,0.00,0.00,VWS V14.01,2013-08-20 07:20:00,
2013-08-20 02:24:00,71.3,65.5,29.74,North,359,11.0,14.0,82,0.00,,---,0.00,0.00,VWS V14.01,2013-08-20 07:24:00,
2013-08-20 02:25:00,71.3,65.5,29.74,North,353,8.0,14.0,82,0.00,,---,0.00,0.00,VWS V14.01,2013-08-20 07:25:00,
2013-08-20 02:29:00,71.3,65.5,29.73,North,0,5.0,14.0,82,0.00,,---,0.00,0.00,VWS V14.01,2013-08-20 07:29:00,
2013-08-20 02:30:00,71.3,65.5,29.73,North,357,10.0,14.0,82,0.00,,---,0.00,0.00,VWS V14.01,2013-08-20 07:30:00,
2013-08-20 02:34:00,71.1,65.3,29.73,NNW,344,7.0,14.0,82,0.00,,---,0.00,0.00,VWS V14.01,2013-08-20 07:34:00,
2013-08-20 02:35:00,71.1,65.3,29.73,North,0,12.0,14.0,82,0.00,,---,0.00,0.00,VWS V14.01,2013-08-20 07:35:00,
2013-08-20 02:40:00,71.1,65.7,29.73,North,352,12.0,17.0,83,0.00,,---,0.00,0.00,VWS V14.01,2013-08-20 07:40:00,
2013-08-20 02:45:00,71.1,65.7,29.73,NNW,344,7.0,14.0,83,0.00,,---,0.00,0.00,VWS V14.01,2013-08-20 07:45:00,
2013-08-20 02:50:00,71.1,65.7,29.73,NNW,347,10.0,13.0,83,0.00,,---,0.00,0.00,VWS V14.01,2013-08-20 07:50:00,
2013-08-20 02:55:00,71.1,65.7,29.73,North,0,6.0,16.0,83,0.00,,---,0.00,0.00,VWS V14.01,2013-08-20 07:55:00,
2013-08-20 03:00:00,70.9,65.5,29.73,NNW,346,7.0,16.0,83,0.00,,---,0.00,0.00,VWS V14.01,2013-08-20 08:00:00,
2013-08-20 03:05:00,70.8,65.4,29.73,West,281,10.0,13.0,83,0.00,,---,0.00,0.00,VWS V14.01,2013-08-20 08:05:00,
2013-08-20 03:10:00,70.6,65.2,29.73,NNW,346,12.0,13.0,83,0.00,,---,0.00,0.00,VWS V14.01,2013-08-20 08:10:00,
2013-08-20 03:15:00,70.6,65.5,29.73,NNW,346,11.0,13.0,84,0.00,,---,0.00,0.00,VWS V14.01,2013-08-20 08:15:00,
2013-08-20 03:20:00,70.4,65.3,29.73,North,0,10.0,14.0,84,0.00,,---,0.00,0.00,VWS V14.01,2013-08-20 08:20:00,
2013-08-20 03:25:00,70.4,65.3,29.73,North,356,14.0,14.0,84,0.00,,---,0.00,0.00,VWS V14.01,2013-08-20 08:25:00,
2013-08-20 03:30:00,70.4,65.3,29.73,NW,326,10.0,17.0,84,0.00,,---,0.00,0.00,VWS V14.01,2013-08-20 08:30:00,
2013-08-20 03:35:00,70.4,65.3,29.73,North,350,11.0,15.0,84,0.00,,---,0.00,0.00,VWS V14.01,2013-08-20 08:35:00,
2013-08-20 03:40:00,70.3,65.6,29.73,NNW,343,10.0,13.0,85,0.00,,---,0.00,0.00,VWS V14.01,2013-08-20 08:40:00,
2013-08-20 03:45:00,70.3,65.6,29.73,North,0,14.0,14.0,85,0.00,,---,0.00,0.00,VWS V14.01,2013-08-20 08:45:00,
2013-08-20 03:50:00,70.1,65.4,29.73,North,0,12.0,14.0,85,0.00,,---,0.00,0.00,VWS V14.01,2013-08-20 08:50:00,
2013-08-20 03:55:00,70.1,65.7,29.73,North,354,10.0,16.0,86,0.00,,---,0.00,0.00,VWS V14.01,2013-08-20 08:55:00,
2013-08-20 04:00:00,70.1,65.4,29.73,North,353,7.0,15.0,85,0.00,,---,0.00,0.00,VWS V14.01,2013-08-20 09:00:00,
2013-08-20 04:05:00,69.9,65.5,29.73,SSW,199,11.0,14.0,86,0.00,,---,0.00,0.00,VWS V14.01,2013-08-20 09:05:00,
2013-08-20 04:10:00,69.9,65.2,29.73,West,278,12.0,14.0,85,0.00,,---,0.00,0.00,VWS V14.01,2013-08-20 09:10:00,
2013-08-20 04:15:00,69.8,65.1,29.73,North,359,10.0,14.0,85,0.00,,---,0.00,0.00,VWS V14.01,2013-08-20 09:15:00,
2013-08-20 04:20:00,69.8,65.1,29.73,North,0,10.0,14.0,85,0.00,,---,0.00,0.00,VWS V14.01,2013-08-20 09:20:00,
2013-08-20 04:25:00,69.6,65.2,29.73,SW,229,5.0,6.0,86,0.00,,---,0.00,0.00,VWS V14.01,2013-08-20 09:25:00,
2013-08-20 04:30:00,69.6,65.2,29.73,WNW,301,10.0,14.0,86,0.00,,---,0.00,0.00,VWS V14.01,2013-08-20 09:30:00,
2013-08-20 04:35:00,69.4,65.0,29.73,North,352,12.0,12.0,86,0.00,,---,0.00,0.00,VWS V14.01,2013-08-20 09:35:00,
2013-08-20 04:40:00,69.4,65.0,29.73,NNW,346,12.0,12.0,86,0.00,,---,0.00,0.00,VWS V14.01,2013-08-20 09:40:00,
2013-08-20 04:45:00,69.4,65.0,29.73,North,0,11.0,12.0,86,0.00,,---,0.00,0.00,VWS V14.01,2013-08-20 09:45:00,
2013-08-20 04:50:00,69.4,65.0,29.73,North,0,13.0,13.0,86,0.00,,---,0.00,0.00,VWS V14.01,2013-08-20 09:50:00,
2013-08-20 04:55:00,69.3,65.3,29.73,North,356,11.0,11.0,87,0.00,,---,0.00,0.00,VWS V14.01,2013-08-20 09:55:00,
2013-08-20 05:00:00,69.3,65.3,29.73,SSW,195,10.0,10.0,87,0.00,,---,0.00,0.00,VWS V14.01,2013-08-20 10:00:00,
2013-08-20 05:05:00,69.1,64.7,29.73,North,359,13.0,13.0,86,0.00,,---,0.00,0.00,VWS V14.01,2013-08-20 10:05:00,
2013-08-20 05:10:00,69.1,64.7,29.73,SW,219,11.0,14.0,86,0.00,,---,0.00,0.00,VWS V14.01,2013-08-20 10:10:00,
2013-08-20 05:11:00,69.1,64.7,29.73,North,350,11.0,11.0,86,0.00,,---,0.00,0.00,VWS V14.01,2013-08-20 10:11:00,
2013-08-20 05:15:00,69.1,64.7,29.73,North,0,11.0,14.0,86,0.00,,---,0.00,0.00,VWS V14.01,2013-08-20 10:15:00,
2013-08-20 05:16:00,69.1,64.7,29.73,North,0,13.0,13.0,86,0.00,,---,0.00,0.00,VWS V14.01,2013-08-20 10:16:00,
2013-08-20 05:21:00,69.1,64.7,29.73,NW,325,8.0,13.0,86,0.00,,---,0.00,0.00,VWS V14.01,2013-08-20 10:21:00,
2013-08-20 05:25:00,68.9,64.5,29.73,WSW,257,13.0,15.0,86,0.00,,---,0.00,0.00,VWS V14.01,2013-08-20 10:25:00,
2013-08-20 05:26:00,68.9,64.6,29.73,NNW,330,12.0,13.0,86,0.00,,---,0.00,0.00,VWS V14.01,2013-08-20 10:26:00,
2013-08-20 05:30:00,68.9,64.5,29.74,WNW,295,12.0,14.0,86,0.00,,---,0.00,0.00,VWS V14.01,2013-08-20 10:30:00,
2013-08-20 05:31:00,68.9,64.6,29.74,WSW,248,11.0,12.0,86,0.00,,---,0.00,0.00,VWS V14.01,2013-08-20 10:31:00,
2013-08-20 05:35:00,68.8,64.4,29.74,West,264,13.0,16.0,86,0.00,,---,0.00,0.00,VWS V14.01,2013-08-20 10:35:00,
2013-08-20 05:36:00,68.8,64.4,29.74,NNW,342,11.0,13.0,86,0.00,,---,0.00,0.00,VWS V14.01,2013-08-20 10:36:00,
2013-08-20 05:40:00,68.8,64.4,29.74,SSE,164,11.0,14.0,86,0.00,,---,0.00,0.00,VWS V14.01,2013-08-20 10:40:00,
2013-08-20 05:41:00,68.8,64.4,29.74,North,0,11.0,13.0,86,0.00,,---,0.00,0.00,VWS V14.01,2013-08-20 10:41:00,
2013-08-20 05:45:00,68.6,64.6,29.74,SSW,202,12.0,13.0,87,0.00,,---,0.00,0.00,VWS V14.01,2013-08-20 10:45:00,
2013-08-20 05:46:00,68.6,64.6,29.74,SSW,210,7.0,13.0,87,0.00,,---,0.00,0.00,VWS V14.01,2013-08-20 10:46:00,
2013-08-20 05:50:00,68.6,64.6,29.74,WSW,256,11.0,16.0,87,0.00,,---,0.00,0.00,VWS V14.01,2013-08-20 10:50:00,
2013-08-20 05:51:00,68.6,64.6,29.74,North,0,8.0,12.0,87,0.00,,---,0.00,0.00,VWS V14.01,2013-08-20 10:51:00,
2013-08-20 05:56:00,68.4,64.4,29.74,North,0,9.0,13.0,87,0.00,,---,0.00,0.00,VWS V14.01,2013-08-20 10:56:00,
2013-08-20 06:00:00,68.4,64.4,29.75,North,0,12.0,14.0,87,0.00,,---,0.00,0.00,VWS V14.01,2013-08-20 11:00:00,
2013-08-20 06:01:00,68.4,64.1,29.75,North,0,10.0,13.0,86,0.00,,---,0.00,0.00,VWS V14.01,2013-08-20 11:01:00,
2013-08-20 06:05:00,68.4,64.1,29.75,SE,137,12.0,14.0,86,0.00,,---,0.00,0.00,VWS V14.01,2013-08-20 11:05:00,
2013-08-20 06:06:00,68.3,64.0,29.75,NW,316,10.0,12.0,86,0.00,,---,0.00,0.00,VWS V14.01,2013-08-20 11:06:00,
2013-08-20 06:10:00,68.3,64.0,29.75,WSW,251,9.0,13.0,86,0.00,,---,0.00,0.00,VWS V14.01,2013-08-20 11:10:00,
2013-08-20 06:11:00,68.3,64.0,29.75,SSW,206,11.0,14.0,86,0.00,,---,0.00,0.00,VWS V14.01,2013-08-20 11:11:00,
2013-08-20 06:15:00,68.3,64.0,29.75,NNW,328,13.0,16.0,86,0.00,,---,0.00,0.00,VWS V14.01,2013-08-20 11:15:00,
2013-08-20 06:16:00,68.3,64.0,29.75,North,0,11.0,14.0,86,0.00,,---,0.00,0.00,VWS V14.01,2013-08-20 11:16:00,
2013-08-20 06:20:00,68.1,63.8,29.75,SW,230,9.0,16.0,86,0.00,,---,0.00,0.00,VWS V14.01,2013-08-20 11:20:00,
2013-08-20 06:21:00,68.1,63.8,29.75,SSW,198,9.0,14.0,86,0.00,,---,0.00,0.00,VWS V14.01,2013-08-20 11:21:00,
2013-08-20 06:25:00,68.1,63.8,29.75,SSW,213,12.0,14.0,86,0.00,,---,0.00,0.00,VWS V14.01,2013-08-20 11:25:00,
2013-08-20 06:26:00,68.1,63.8,29.75,SSW,192,7.0,12.0,86,0.00,,---,0.00,0.00,VWS V14.01,2013-08-20 11:26:00,
2013-08-20 06:30:00,68.1,63.8,29.75,SE,145,9.0,13.0,86,0.00,,---,0.00,0.00,VWS V14.01,2013-08-20 11:30:00,
2013-08-20 06:31:00,68.1,63.8,29.75,NNW,336,13.0,13.0,86,0.00,,---,0.00,0.00,VWS V14.01,2013-08-20 11:31:00,
2013-08-20 06:35:00,67.9,63.6,29.75,SW,230,11.0,16.0,86,0.00,,---,0.00,0.00,VWS V14.01,2013-08-20 11:35:00,
2013-08-20 06:36:00,67.9,63.6,29.75,WSW,246,9.0,14.0,86,0.00,,---,0.00,0.00,VWS V14.01,2013-08-20 11:36:00,
2013-08-20 06:41:00,67.9,63.6,29.75,WSW,246,12.0,17.0,86,0.00,,---,0.00,0.00,VWS V14.01,2013-08-20 11:41:00,
2013-08-20 06:45:00,67.9,63.6,29.75,North,0,9.0,17.0,86,0.00,,---,0.00,0.00,VWS V14.01,2013-08-20 11:45:00,
2013-08-20 06:46:00,67.9,63.6,29.75,SW,224,10.0,16.0,86,0.00,,---,0.00,0.00,VWS V14.01,2013-08-20 11:46:00,
2013-08-20 06:50:00,67.9,63.6,29.75,SSW,196,8.0,16.0,86,0.00,,---,0.00,0.00,VWS V14.01,2013-08-20 11:50:00,
2013-08-20 06:51:00,67.9,63.6,29.75,SSW,202,13.0,13.0,86,0.00,,---,0.00,0.00,VWS V14.01,2013-08-20 11:51:00,
2013-08-20 06:56:00,67.9,63.6,29.75,SSW,199,10.0,13.0,86,0.00,,---,0.00,7.00,VWS V14.01,2013-08-20 11:56:00,
2013-08-20 07:00:00,67.9,63.6,29.76,WSW,246,12.0,16.0,86,0.00,,---,0.00,9.00,VWS V14.01,2013-08-20 12:00:00,
2013-08-20 07:01:00,67.9,63.6,29.76,NW,316,17.0,17.0,86,0.00,,---,0.00,9.00,VWS V14.01,2013-08-20 12:01:00,
2013-08-20 07:05:00,67.9,63.6,29.76,WSW,248,12.0,17.0,86,0.00,,---,0.00,18.00,VWS V14.01,2013-08-20 12:05:00,
2013-08-20 07:06:00,67.9,63.6,29.76,North,0,13.0,16.0,86,0.00,,---,0.00,18.00,VWS V14.01,2013-08-20 12:06:00,
2013-08-20 07:10:00,67.9,63.6,29.76,SSW,213,11.0,16.0,86,0.00,,---,0.00,14.00,VWS V14.01,2013-08-20 12:10:00,
2013-08-20 07:11:00,68.1,63.8,29.76,SSW,200,13.0,14.0,86,0.00,,---,0.00,14.00,VWS V14.01,2013-08-20 12:11:00,
2013-08-20 07:15:00,68.1,63.8,29.77,SW,219,12.0,16.0,86,0.00,,---,0.00,21.00,VWS V14.01,2013-08-20 12:15:00,
2013-08-20 07:16:00,68.1,63.8,29.77,SW,236,11.0,14.0,86,0.00,,---,0.00,28.00,VWS V14.01,2013-08-20 12:16:00,
2013-08-20 07:20:00,68.3,64.0,29.77,SW,224,11.0,14.0,86,0.00,,---,0.00,35.00,VWS V14.01,2013-08-20 12:20:00,
2013-08-20 07:21:00,68.3,64.0,29.77,SSW,213,11.0,17.0,86,0.00,,---,0.00,35.00,VWS V14.01,2013-08-20 12:21:00,
2013-08-20 07:25:00,68.3,64.0,29.77,WSW,240,13.0,17.0,86,0.00,,---,0.00,42.00,VWS V14.01,2013-08-20 12:25:00,
2013-08-20 07:26:00,68.4,64.1,29.77,SW,236,14.0,16.0,86,0.00,,---,0.00,42.00,VWS V14.01,2013-08-20 12:26:00,
2013-08-20 07:30:00,68.4,63.7,29.77,NNW,342,14.0,17.0,85,0.00,,---,0.00,51.00,VWS V14.01,2013-08-20 12:30:00,
2013-08-20 07:32:00,68.6,63.9,29.77,SSW,193,12.0,18.0,85,0.00,,---,0.00,51.00,VWS V14.01,2013-08-20 12:32:00,
2013-08-20 07:35:00,68.6,63.9,29.77,SW,226,12.0,18.0,85,0.00,,---,0.00,67.00,VWS V14.01,2013-08-20 12:35:00,
2013-08-20 07:37:00,68.8,64.1,29.77,WSW,253,14.0,14.0,85,0.00,,---,0.00,70.00,VWS V14.01,2013-08-20 12:37:00,
2013-08-20 07:40:00,68.8,64.1,29.77,SW,227,15.0,18.0,85,0.00,,---,0.00,93.00,VWS V14.01,2013-08-20 12:40:00,
2013-08-20 07:42:00,68.9,64.2,29.77,SSW,193,10.0,17.0,85,0.00,,---,0.00,97.00,VWS V14.01,2013-08-20 12:42:00,
2013-08-20 07:45:00,68.9,63.9,29.77,SW,220,11.0,17.0,84,0.00,,---,0.00,93.00,VWS V14.01,2013-08-20 12:45:00,
2013-08-20 07:47:00,69.1,64.1,29.77,SSW,202,13.0,16.0,84,0.00,,---,0.00,107.00,VWS V14.01,2013-08-20 12:47:00,
2013-08-20 07:50:00,69.1,64.1,29.77,SSW,203,10.0,17.0,84,0.00,,---,0.00,114.00,VWS V14.01,2013-08-20 12:50:00,
2013-08-20 07:52:00,69.3,64.3,29.77,SSW,192,13.0,13.0,84,0.00,,---,0.00,120.00,VWS V14.01,2013-08-20 12:52:00,
2013-08-20 07:55:00,69.3,63.9,29.77,South,191,13.0,17.0,83,0.00,,---,0.00,128.00,VWS V14.01,2013-08-20 12:55:00,
2013-08-20 07:57:00,69.4,64.0,29.77,SW,222,13.0,20.0,83,0.00,,---,0.00,128.00,VWS V14.01,2013-08-20 12:57:00,
2013-08-20 08:00:00,69.6,63.9,29.77,SSW,193,14.0,20.0,82,0.00,,---,0.00,143.00,VWS V14.01,2013-08-20 13:00:00,
2013-08-20 08:02:00,69.6,63.9,29.77,SSW,193,12.0,14.0,82,0.00,,---,0.00,143.00,VWS V14.01,2013-08-20 13:02:00,
2013-08-20 08:05:00,69.8,64.1,29.77,SSW,203,13.0,17.0,82,0.00,,---,0.00,155.00,VWS V14.01,2013-08-20 13:05:00,
2013-08-20 08:07:00,69.9,63.8,29.77,SSW,195,14.0,18.0,81,0.00,,---,0.00,141.00,VWS V14.01,2013-08-20 13:07:00,
2013-08-20 08:10:00,70.1,64.0,29.77,SSW,195,10.0,18.0,81,0.00,,---,0.00,151.00,VWS V14.01,2013-08-20 13:10:00,
2013-08-20 08:12:00,70.3,63.8,29.77,SW,216,10.0,14.0,80,0.00,,---,0.00,157.00,VWS V14.01,2013-08-20 13:12:00,
2013-08-20 08:15:00,70.4,63.6,29.79,SSW,198,17.0,18.0,79,0.00,,---,0.00,169.00,VWS V14.01,2013-08-20 13:15:00,
2013-08-20 08:17:00,70.6,63.8,29.79,NNW,346,11.0,17.0,79,0.00,,---,0.00,174.00,VWS V14.01,2013-08-20 13:17:00,
2013-08-20 08:20:00,70.8,63.6,29.79,SSW,195,8.0,19.0,78,0.00,,---,0.00,183.00,VWS V14.01,2013-08-20 13:20:00,
2013-08-20 08:22:00,70.9,63.7,29.79,SW,219,13.0,14.0,78,0.00,,---,0.00,187.00,VWS V14.01,2013-08-20 13:22:00,
2013-08-20 08:27:00,71.3,63.7,29.79,SSW,206,18.0,19.0,77,0.00,,---,0.00,201.00,VWS V14.01,2013-08-20 13:27:00,
2013-08-20 08:30:00,71.6,63.6,29.79,SSW,193,16.0,19.0,76,0.00,,---,0.00,211.00,VWS V14.01,2013-08-20 13:30:00,
2013-08-20 08:32:00,71.6,63.6,29.79,NW,308,11.0,18.0,76,0.00,,---,0.00,216.00,VWS V14.01,2013-08-20 13:32:00,
2013-08-20 08:35:00,71.8,63.5,29.79,WSW,246,13.0,19.0,75,0.00,,---,0.00,223.00,VWS V14.01,2013-08-20 13:35:00,
2013-08-20 08:37:00,72.0,63.3,29.79,NW,311,18.0,21.0,74,0.00,,---,0.00,230.00,VWS V14.01,2013-08-20 13:37:00,
2013-08-20 08:40:00,72.1,63.4,29.79,SW,230,17.0,22.0,74,0.00,,---,0.00,257.00,VWS V14.01,2013-08-20 13:40:00,
2013-08-20 08:42:00,72.3,63.6,29.79,WSW,253,14.0,20.0,74,0.00,,---,0.00,262.00,VWS V14.01,2013-08-20 13:42:00,
2013-08-20 08:45:00,72.7,63.5,29.79,SSW,198,16.0,20.0,73,0.00,,---,0.00,271.00,VWS V14.01,2013-08-20 13:45:00,
2013-08-20 08:47:00,72.7,63.5,29.79,NNW,335,16.0,19.0,73,0.00,,---,0.00,274.00,VWS V14.01,2013-08-20 13:47:00,
2013-08-20 08:50:00,73.0,63.5,29.79,SW,223,12.0,21.0,72,0.00,,---,0.00,280.00,VWS V14.01,2013-08-20 13:50:00,
2013-08-20 08:52:00,73.0,63.5,29.79,NNW,346,15.0,22.0,72,0.00,,---,0.00,294.00,VWS V14.01,2013-08-20 13:52:00,
2013-08-20 08:55:00,73.3,63.3,29.79,West,261,20.0,22.0,71,0.00,,---,0.00,303.00,VWS V14.01,2013-08-20 13:55:00,
2013-08-20 08:57:00,73.3,63.3,29.79,NW,320,15.0,20.0,71,0.00,,---,0.00,308.00,VWS V14.01,2013-08-20 13:57:00,
2013-08-20 09:02:00,73.7,63.3,29.79,SW,222,14.0,19.0,70,0.00,,---,0.00,318.00,VWS V14.01,2013-08-20 14:02:00,
2013-08-20 09:05:00,74.0,63.2,29.79,WSW,241,13.0,21.0,69,0.00,,---,0.00,333.00,VWS V14.01,2013-08-20 14:05:00,
2013-08-20 09:07:00,74.0,62.8,29.79,WSW,246,18.0,20.0,68,0.00,,---,0.00,322.00,VWS V14.01,2013-08-20 14:07:00,
2013-08-20 09:10:00,74.4,63.2,29.79,North,359,16.0,20.0,68,0.00,,---,0.00,334.00,VWS V14.01,2013-08-20 14:10:00,
2013-08-20 09:12:00,74.6,62.9,29.79,SW,233,17.0,18.0,67,0.00,,---,0.00,340.00,VWS V14.01,2013-08-20 14:12:00,
2013-08-20 09:15:00,74.6,62.9,29.79,South,172,16.0,21.0,67,0.00,,---,0.00,348.00,VWS V14.01,2013-08-20 14:15:00,
2013-08-20 09:17:00,74.7,62.6,29.79,SW,217,19.0,21.0,66,0.00,,---,0.00,350.00,VWS V14.01,2013-08-20 14:17:00,
2013-08-20 09:20:00,74.9,62.8,29.79,West,264,16.0,21.0,66,0.00,,---,0.00,362.00,VWS V14.01,2013-08-20 14:20:00,
2013-08-20 09:22:00,75.1,62.5,29.79,SW,234,18.0,22.0,65,0.00,,---,0.00,370.00,VWS V14.01,2013-08-20 14:22:00,
2013-08-20 09:25:00,75.3,62.7,29.79,SSW,208,13.0,22.0,65,0.00,,---,0.00,380.00,VWS V14.01,2013-08-20 14:25:00,
2013-08-20 09:27:00,75.3,62.7,29.79,SSW,212,13.0,20.0,65,0.00,,---,0.00,385.00,VWS V14.01,2013-08-20 14:27:00,
2013-08-20 09:30:00,75.4,62.4,29.79,SW,217,13.0,22.0,64,0.00,,---,0.00,398.00,VWS V14.01,2013-08-20 14:30:00,
2013-08-20 09:32:00,75.6,63.0,29.79,NNW,336,16.0,17.0,65,0.00,,---,0.00,401.00,VWS V14.01,2013-08-20 14:32:00,
2013-08-20 09:35:00,75.8,62.8,29.79,SW,222,13.0,22.0,64,0.00,,---,0.00,408.00,VWS V14.01,2013-08-20 14:35:00,
2013-08-20 09:37:00,76.0,63.0,29.79,West,263,14.0,20.0,64,0.00,,---,0.00,417.00,VWS V14.01,2013-08-20 14:37:00,
2013-08-20 09:40:00,76.3,62.8,29.79,SSW,192,12.0,21.0,63,0.00,,---,0.00,435.00,VWS V14.01,2013-08-20 14:40:00,
2013-08-20 09:42:00,76.5,63.0,29.79,North,359,20.0,22.0,63,0.00,,---,0.00,447.00,VWS V14.01,2013-08-20 14:42:00,
2013-08-20 09:45:00,76.5,63.0,29.78,NNW,344,18.0,24.0,63,0.00,,---,0.00,452.00,VWS V14.01,2013-08-20 14:45:00,
2013-08-20 09:48:00,76.7,63.6,29.78,SW,217,15.0,22.0,64,0.00,,---,0.00,457.00,VWS V14.01,2013-08-20 14:48:00,
2013-08-20 09:50:00,76.8,63.3,29.78,North,0,16.0,22.0,63,0.00,,---,0.00,463.00,VWS V14.01,2013-08-20 14:50:00,
2013-08-20 09:53:00,77.0,63.0,29.78,SW,233,24.0,24.0,62,0.00,,---,0.00,472.00,VWS V14.01,2013-08-20 14:53:00,
2013-08-20 09:55:00,77.2,62.7,29.78,North,359,17.0,24.0,61,0.00,,---,0.00,477.00,VWS V14.01,2013-08-20 14:55:00,
2013-08-20 09:58:00,77.4,62.9,29.78,WSW,248,20.0,25.0,61,0.00,,---,0.00,486.00,VWS V14.01,2013-08-20 14:58:00,
2013-08-20 10:03:00,77.7,63.2,29.78,SW,220,12.0,21.0,61,0.00,,---,0.00,498.00,VWS V14.01,2013-08-20 15:03:00,
2013-08-20 10:05:00,77.9,63.4,29.78,SSW,206,19.0,26.0,61,0.00,,---,0.00,507.00,VWS V14.01,2013-08-20 15:05:00,
2013-08-20 10:08:00,77.9,62.4,29.78,SSW,208,21.0,25.0,59,0.00,,---,0.00,500.00,VWS V14.01,2013-08-20 15:08:00,
2013-08-20 10:10:00,78.1,62.6,29.78,North,357,12.0,25.0,59,0.00,,---,0.00,512.00,VWS V14.01,2013-08-20 15:10:00,
2013-08-20 10:13:00,78.1,62.6,29.78,SSW,205,17.0,25.0,59,0.00,,---,0.00,519.00,VWS V14.01,2013-08-20 15:13:00,
2013-08-20 10:15:00,78.3,63.3,29.79,WSW,251,16.0,25.0,60,0.00,,---,0.00,523.00,VWS V14.01,2013-08-20 15:15:00,
2013-08-20 10:18:00,78.5,63.5,29.79,SW,233,20.0,22.0,60,0.00,,---,0.00,530.00,VWS V14.01,2013-08-20 15:18:00,
2013-08-20 10:20:00,78.6,62.6,29.79,South,185,21.0,26.0,58,0.00,,---,0.00,538.00,VWS V14.01,2013-08-20 15:20:00,
2013-08-20 10:23:00,78.8,62.3,29.79,SW,226,13.0,26.0,57,0.00,,---,0.00,545.00,VWS V14.01,2013-08-20 15:23:00,
2013-08-20 10:25:00,79.0,63.0,29.79,WSW,253,17.0,26.0,58,0.00,,---,0.00,549.00,VWS V14.01,2013-08-20 15:25:00,
2013-08-20 10:28:00,79.0,62.5,29.79,WSW,241,26.0,26.0,57,0.00,,---,0.00,556.00,VWS V14.01,2013-08-20 15:28:00,
2013-08-20 10:30:00,79.2,62.7,29.78,WSW,253,19.0,27.0,57,0.00,,---,0.00,563.00,VWS V14.01,2013-08-20 15:30:00,
2013-08-20 10:33:00,79.4,62.9,29.78,SW,217,20.0,25.0,57,0.00,,---,0.00,570.00,VWS V14.01,2013-08-20 15:33:00,
2013-08-20 10:35:00,79.4,62.8,29.78,NNW,346,22.0,25.0,57,0.00,,---,0.00,577.00,VWS V14.01,2013-08-20 15:35:00,
2013-08-20 10:38:00,79.6,63.5,29.78,SSW,208,15.0,22.0,58,0.00,,---,0.00,582.00,VWS V14.01,2013-08-20 15:38:00,
2013-08-20 10:40:00,79.6,63.5,29.78,SSW,202,14.0,24.0,58,0.00,,---,0.00,593.00,VWS V14.01,2013-08-20 15:40:00,
2013-08-20 10:43:00,79.9,63.3,29.78,SSW,212,24.0,27.0,57,0.00,,---,0.00,604.00,VWS V14.01,2013-08-20 15:43:00,
2013-08-20 10:45:00,80.1,64.0,29.78,SSW,209,20.0,28.0,58,0.00,,---,0.00,609.00,VWS V14.01,2013-08-20 15:45:00,
2013-08-20 10:48:00,80.1,63.0,29.78,SSW,212,22.0,26.0,56,0.00,,---,0.00,616.00,VWS V14.01,2013-08-20 15:48:00,
2013-08-20 10:50:00,80.1,63.0,29.78,West,275,16.0,28.0,56,0.00,,---,0.00,621.00,VWS V14.01,2013-08-20 15:50:00,
2013-08-20 10:53:00,80.3,63.2,29.78,WSW,240,22.0,27.0,56,0.00,,---,0.00,625.00,VWS V14.01,2013-08-20 15:53:00,
2013-08-20 10:55:00,80.3,63.2,29.78,West,272,14.0,27.0,56,0.00,,---,0.00,632.00,VWS V14.01,2013-08-20 15:55:00,
2013-08-20 10:58:00,80.7,64.1,29.78,NNW,328,16.0,18.0,57,0.00,,---,0.00,639.00,VWS V14.01,2013-08-20 15:58:00,
2013-08-20 11:00:00,81.1,63.9,29.78,SW,229,12.0,19.0,56,0.00,,---,0.00,642.00,VWS V14.01,2013-08-20 16:00:00,
2013-08-20 11:03:00,81.2,64.5,29.78,NW,323,13.0,22.0,57,0.00,,---,0.00,649.00,VWS V14.01,2013-08-20 16:03:00,
2013-08-20 11:05:00,81.4,63.7,29.78,SW,233,27.0,27.0,55,0.00,,---,0.00,656.00,VWS V14.01,2013-08-20 16:05:00,
2013-08-20 11:08:00,81.4,63.2,29.78,SW,223,13.0,27.0,54,0.00,,---,0.00,655.00,VWS V14.01,2013-08-20 16:08:00,
2013-08-20 11:10:00,81.6,63.9,29.78,SSW,192,19.0,27.0,55,0.00,,---,0.00,656.00,VWS V14.01,2013-08-20 16:10:00,
2013-08-20 11:13:00,81.6,62.8,29.78,SSW,206,17.0,24.0,53,0.00,,---,0.00,665.00,VWS V14.01,2013-08-20 16:13:00,
2013-08-20 11:15:00,81.6,62.8,29.78,SSW,213,19.0,24.0,53,0.00,,---,0.00,670.00,VWS V14.01,2013-08-20 16:15:00,
2013-08-20 11:18:00,81.8,63.0,29.78,NNW,332,18.0,24.0,53,0.00,,---,0.00,676.00,VWS V14.01,2013-08-20 16:18:00,
2013-08-20 11:20:00,81.8,63.0,29.78,SW,220,19.0,24.0,53,0.00,,---,0.00,681.00,VWS V14.01,2013-08-20 16:20:00,
2013-08-20 11:23:00,82.0,62.7,29.78,NNW,329,10.0,26.0,52,0.00,,---,0.00,684.00,VWS V14.01,2013-08-20 16:23:00,
2013-08-20 11:25:00,82.2,63.9,29.78,SW,234,22.0,26.0,54,0.00,,---,0.00,690.00,VWS V14.01,2013-08-20 16:25:00,
2013-08-20 11:28:00,82.2,62.8,29.78,SW,220,26.0,26.0,52,0.00,,---,0.00,697.00,VWS V14.01,2013-08-20 16:28:00,
2013-08-20 11:30:00,82.2,62.3,29.78,NW,326,22.0,26.0,51,0.00,,---,0.00,702.00,VWS V14.01,2013-08-20 16:30:00,
2013-08-20 11:33:00,82.2,62.8,29.78,SW,222,19.0,25.0,52,0.00,,---,0.00,706.00,VWS V14.01,2013-08-20 16:33:00,
2013-08-20 11:35:00,82.4,63.0,29.78,WSW,246,17.0,26.0,52,0.00,,---,0.00,711.00,VWS V14.01,2013-08-20 16:35:00,
2013-08-20 11:38:00,82.4,63.6,29.78,WSW,237,13.0,27.0,53,0.00,,---,0.00,716.00,VWS V14.01,2013-08-20 16:38:00,
2013-08-20 11:40:00,82.6,62.7,29.78,SSW,192,21.0,27.0,51,0.00,,---,0.00,723.00,VWS V14.01,2013-08-20 16:40:00,
2013-08-20 11:43:00,83.0,63.6,29.78,WSW,240,16.0,22.0,52,0.00,,---,0.00,728.00,VWS V14.01,2013-08-20 16:43:00,
2013-08-20 11:45:00,83.0,63.0,29.77,West,267,21.0,25.0,51,0.00,,---,0.00,734.00,VWS V14.01,2013-08-20 16:45:00,
2013-08-20 11:48:00,83.4,64.0,29.77,SW,219,19.0,21.0,52,0.00,,---,0.00,737.00,VWS V14.01,2013-08-20 16:48:00,
2013-08-20 11:50:00,83.4,64.0,29.77,SSW,199,17.0,21.0,52,0.00,,---,0.00,741.00,VWS V14.01,2013-08-20 16:50:00,
2013-08-20 11:53:00,83.6,64.1,29.77,SW,224,21.0,25.0,52,0.00,,---,0.00,744.00,VWS V14.01,2013-08-20 16:53:00,
2013-08-20 11:55:00,83.6,64.1,29.77,WSW,244,16.0,25.0,52,0.00,,---,0.00,699.00,VWS V14.01,2013-08-20 16:55:00,
2013-08-20 11:58:00,84.0,62.8,29.77,South,186,19.0,21.0,49,0.00,,---,0.00,753.00,VWS V14.01,2013-08-20 16:58:00,
2013-08-20 12:00:00,84.0,63.4,29.77,SW,219,14.0,21.0,50,0.00,,---,0.00,755.00,VWS V14.01,2013-08-20 17:00:00,
2013-08-20 12:04:00,84.0,63.4,29.77,SW,229,21.0,26.0,50,0.00,,---,0.00,760.00,VWS V14.01,2013-08-20 17:04:00,
2013-08-20 12:05:00,84.0,63.4,29.77,SW,226,22.0,26.0,50,0.00,,---,0.00,762.00,VWS V14.01,2013-08-20 17:05:00,
2013-08-20 12:09:00,84.0,62.2,29.77,WSW,244,18.0,27.0,48,0.00,,---,0.00,765.00,VWS V14.01,2013-08-20 17:09:00,
2013-08-20 12:10:00,84.1,62.3,29.77,SSW,206,14.0,28.0,48,0.00,,---,0.00,767.00,VWS V14.01,2013-08-20 17:10:00,
2013-08-20 12:14:00,84.1,62.3,29.77,SSW,199,16.0,27.0,48,0.00,,---,0.00,771.00,VWS V14.01,2013-08-20 17:14:00,
2013-08-20 12:15:00,84.1,62.3,29.76,SW,227,20.0,27.0,48,0.00,,---,0.00,774.00,VWS V14.01,2013-08-20 17:15:00,
2013-08-20 12:19:00,84.3,63.1,29.76,NW,322,24.0,25.0,49,0.00,,---,0.00,779.00,VWS V14.01,2013-08-20 17:19:00,
2013-08-20 12:20:00,84.3,62.5,29.76,SSW,202,14.0,25.0,48,0.00,,---,0.00,730.00,VWS V14.01,2013-08-20 17:20:00,
2013-08-20 12:24:00,84.7,63.5,29.76,SW,236,11.0,20.0,49,0.00,,---,0.00,781.00,VWS V14.01,2013-08-20 17:24:00,
2013-08-20 12:25:00,84.7,63.4,29.76,WNW,301,17.0,24.0,49,0.00,,---,0.00,785.00,VWS V14.01,2013-08-20 17:25:00,
2013-08-20 12:29:00,84.9,64.2,29.76,SSW,193,13.0,25.0,50,0.00,,---,0.00,788.00,VWS V14.01,2013-08-20 17:29:00,
2013-08-20 12:30:00,84.9,63.6,29.76,NW,322,16.0,25.0,49,0.00,,---,0.00,788.00,VWS V14.01,2013-08-20 17:30:00,
2013-08-20 12:34:00,85.1,63.2,29.76,SW,223,20.0,24.0,48,0.00,,---,0.00,792.00,VWS V14.01,2013-08-20 17:34:00,
2013-08-20 12:35:00,85.1,63.2,29.76,South,191,19.0,24.0,48,0.00,,---,0.00,792.00,VWS V14.01,2013-08-20 17:35:00,
2013-08-20 12:39:00,85.3,62.8,29.76,SW,222,18.0,25.0,47,0.00,,---,0.00,795.00,VWS V14.01,2013-08-20 17:39:00,
2013-08-20 12:40:00,85.3,63.4,29.76,WNW,298,18.0,25.0,48,0.00,,---,0.00,797.00,VWS V14.01,2013-08-20 17:40:00,
2013-08-20 12:44:00,85.3,63.4,29.76,SW,223,14.0,27.0,48,0.00,,---,0.00,799.00,VWS V14.01,2013-08-20 17:44:00,
2013-08-20 12:45:00,85.3,62.8,29.76,SW,232,21.0,27.0,47,0.00,,---,0.00,799.00,VWS V14.01,2013-08-20 17:45:00,
2013-08-20 12:49:00,85.3,63.4,29.76,NNW,346,25.0,25.0,48,0.00,,---,0.00,801.00,VWS V14.01,2013-08-20 17:49:00,
2013-08-20 12:50:00,85.3,63.4,29.76,WNW,282,17.0,25.0,48,0.00,,---,0.00,801.00,VWS V14.01,2013-08-20 17:50:00,
2013-08-20 12:54:00,85.5,63.6,29.76,West,267,22.0,22.0,48,0.00,,---,0.00,804.00,VWS V14.01,2013-08-20 17:54:00,
2013-08-20 12:55:00,85.5,63.6,29.76,NNW,347,17.0,24.0,48,0.00,,---,0.00,804.00,VWS V14.01,2013-08-20 17:55:00,
2013-08-20 12:59:00,85.7,63.8,29.76,WNW,298,16.0,24.0,48,0.00,,---,0.00,806.00,VWS V14.01,2013-08-20 17:59:00,
2013-08-20 13:00:00,85.7,63.8,29.75,SW,222,10.0,24.0,48,0.00,,---,0.00,797.00,VWS V14.01,2013-08-20 18:00:00,
2013-08-20 13:04:00,85.9,64.0,29.75,SSW,208,21.0,24.0,48,0.00,,---,0.00,153.00,VWS V14.01,2013-08-20 18:04:00,
2013-08-20 13:05:00,85.9,64.0,29.75,NW,305,15.0,24.0,48,0.00,,---,0.00,153.00,VWS V14.01,2013-08-20 18:05:00,
2013-08-20 13:09:00,86.1,62.9,29.75,WSW,253,14.0,22.0,46,0.00,,---,0.00,146.00,VWS V14.01,2013-08-20 18:09:00,
2013-08-20 13:10:00,86.3,63.7,29.75,South,181,13.0,22.0,47,0.00,,---,0.00,146.00,VWS V14.01,2013-08-20 18:10:00,
2013-08-20 13:14:00,86.5,63.3,29.75,SW,232,12.0,22.0,46,0.00,,---,0.00,765.00,VWS V14.01,2013-08-20 18:14:00,
2013-08-20 13:15:00,86.5,64.5,29.75,SW,230,18.0,22.0,48,0.00,,---,0.00,765.00,VWS V14.01,2013-08-20 18:15:00,
2013-08-20 13:19:00,86.7,64.1,29.75,WNW,294,18.0,21.0,47,0.00,,---,0.00,187.00,VWS V14.01,2013-08-20 18:19:00,
2013-08-20 13:20:00,86.7,63.5,29.75,NNW,335,13.0,21.0,46,0.00,,---,0.00,187.00,VWS V14.01,2013-08-20 18:20:00,
2013-08-20 13:24:00,87.2,64.5,29.75,North,354,21.0,21.0,47,0.00,,---,0.00,187.00,VWS V14.01,2013-08-20 18:24:00,
2013-08-20 13:29:00,87.0,64.3,29.75,NW,316,13.0,22.0,47,0.00,,---,0.00,139.00,VWS V14.01,2013-08-20 18:29:00,
2013-08-20 13:30:00,87.2,63.9,29.74,WSW,253,14.0,22.0,46,0.00,,---,0.00,139.00,VWS V14.01,2013-08-20 18:30:00,
2013-08-20 13:34:00,87.4,65.3,29.74,NNW,340,17.0,19.0,48,0.00,,---,0.00,137.00,VWS V14.01,2013-08-20 18:34:00,
2013-08-20 13:35:00,87.2,63.9,29.74,SSW,193,8.0,19.0,46,0.00,,---,0.00,139.00,VWS V14.01,2013-08-20 18:35:00,
2013-08-20 13:39:00,87.4,63.5,29.74,SSW,199,13.0,18.0,45,0.00,,---,0.00,139.00,VWS V14.01,2013-08-20 18:39:00,
2013-08-20 13:40:00,87.6,64.3,29.74,SW,222,14.0,18.0,46,0.00,,---,0.00,148.00,VWS V14.01,2013-08-20 18:40:00,
2013-08-20 13:44:00,87.6,64.9,29.74,WNW,299,7.0,19.0,47,0.00,,---,0.00,150.00,VWS V14.01,2013-08-20 18:44:00,
2013-08-20 13:45:00,87.8,65.1,29.74,SW,234,9.0,19.0,47,0.00,,---,0.00,183.00,VWS V14.01,2013-08-20 18:45:00,
2013-08-20 13:49:00,88.0,65.3,29.74,SSW,206,13.0,19.0,47,0.00,,---,0.00,324.00,VWS V14.01,2013-08-20 18:49:00,
2013-08-20 13:50:00,88.2,64.8,29.74,South,172,14.0,19.0,46,0.00,,---,0.00,428.00,VWS V14.01,2013-08-20 18:50:00,
2013-08-20 13:54:00,88.2,64.8,29.74,SW,216,14.0,21.0,46,0.00,,---,0.00,428.00,VWS V14.01,2013-08-20 18:54:00,
2013-08-20 13:55:00,88.2,64.2,29.74,SW,220,20.0,21.0,45,0.00,,---,0.00,428.00,VWS V14.01,2013-08-20 18:55:00,
2013-08-20 13:59:00,88.2,64.2,29.74,WSW,246,13.0,20.0,45,0.00,,---,0.00,753.00,VWS V14.01,2013-08-20 18:59:00,
2013-08-20 14:00:00,88.2,64.2,29.74,North,356,13.0,20.0,45,0.00,,---,0.00,753.00,VWS V14.01,2013-08-20 19:00:00,
2013-08-20 14:04:00,87.8,63.8,29.74,SSW,203,17.0,24.0,45,0.00,,---,0.00,151.00,VWS V14.01,2013-08-20 19:04:00,
2013-08-20 14:05:00,87.8,63.8,29.74,SSW,212,20.0,25.0,45,0.00,,---,0.00,162.00,VWS V14.01,2013-08-20 19:05:00,
2013-08-20 14:09:00,87.8,63.8,29.74,WSW,239,13.0,24.0,45,0.00,,---,0.00,162.00,VWS V14.01,2013-08-20 19:09:00,
2013-08-20 14:10:00,87.8,63.8,29.74,NNW,339,19.0,24.0,45,0.00,,---,0.00,801.00,VWS V14.01,2013-08-20 19:10:00,
2013-08-20 14:15:00,88.0,64.0,29.74,NW,311,13.0,22.0,45,0.00,,---,0.00,801.00,VWS V14.01,2013-08-20 19:15:00,
2013-08-20 14:20:00,88.2,64.8,29.74,SSW,199,10.0,21.0,46,0.00,,---,0.00,799.00,VWS V14.01,2013-08-20 19:20:00,
2013-08-20 14:25:00,88.2,63.6,29.74,North,0,14.0,24.0,44,0.00,,---,0.00,795.00,VWS V14.01,2013-08-20 19:25:00,
2013-08-20 14:30:00,88.0,64.0,29.73,West,263,12.0,21.0,45,0.00,,---,0.00,790.00,VWS V14.01,2013-08-20 19:30:00,
2013-08-20 14:35:00,88.2,63.6,29.73,South,191,13.0,20.0,44,0.00,,---,0.00,788.00,VWS V14.01,2013-08-20 19:35:00,
2013-08-20 14:40:00,88.6,63.3,29.73,SSW,209,17.0,24.0,43,0.00,,---,0.00,785.00,VWS V14.01,2013-08-20 19:40:00,
2013-08-20 14:45:00,88.6,64.6,29.73,NNW,342,21.0,24.0,45,0.00,,---,0.00,781.00,VWS V14.01,2013-08-20 19:45:00,
2013-08-20 14:50:00,88.6,65.2,29.73,SW,230,19.0,24.0,46,0.00,,---,0.00,751.00,VWS V14.01,2013-08-20 19:50:00,
2013-08-20 14:55:00,88.8,64.7,29.73,West,278,12.0,21.0,45,0.00,,---,0.00,769.00,VWS V14.01,2013-08-20 19:55:00,
2013-08-20 15:00:00,89.0,63.0,29.73,SW,226,17.0,21.0,42,0.00,,---,0.00,764.00,VWS V14.01,2013-08-20 20:00:00,
2013-08-20 15:05:00,89.0,64.9,29.73,North,350,11.0,18.0,45,0.00,,---,0.00,757.00,VWS V14.01,2013-08-20 20:05:00,
2013-08-20 15:10:00,89.5,65.4,29.73,SSW,202,21.0,21.0,45,0.00,,---,0.00,743.00,VWS V14.01,2013-08-20 20:10:00,
2013-08-20 15:15:00,89.5,63.4,29.72,SSW,205,15.0,24.0,42,0.00,,---,0.00,741.00,VWS V14.01,2013-08-20 20:15:00,
2013-08-20 15:20:00,89.7,64.9,29.72,West,278,9.0,22.0,44,0.00,,---,0.00,728.00,VWS V14.01,2013-08-20 20:20:00,
2013-08-20 15:25:00,89.7,65.6,29.72,SW,224,18.0,19.0,45,0.00,,---,0.00,721.00,VWS V14.01,2013-08-20 20:25:00,
2013-08-20 15:30:00,89.5,64.1,29.72,NW,304,10.0,27.0,43,0.00,,---,0.00,711.00,VWS V14.01,2013-08-20 20:30:00,
2013-08-20 15:35:00,89.5,64.7,29.72,West,260,19.0,19.0,44,0.00,,---,0.00,702.00,VWS V14.01,2013-08-20 20:35:00,
2013-08-20 15:40:00,89.5,64.7,29.72,SW,220,11.0,15.0,44,0.00,,---,0.00,697.00,VWS V14.01,2013-08-20 20:40:00,
2013-08-20 15:45:00,89.7,65.6,29.71,WSW,251,14.0,19.0,45,0.00,,---,0.00,690.00,VWS V14.01,2013-08-20 20:45:00,
2013-08-20 15:50:00,89.7,65.6,29.71,NNW,346,14.0,15.0,45,0.00,,---,0.00,681.00,VWS V14.01,2013-08-20 20:50:00,
2013-08-20 15:55:00,89.7,65.6,29.71,SW,234,20.0,20.0,45,0.00,,---,0.00,670.00,VWS V14.01,2013-08-20 20:55:00,
2013-08-20 16:00:00,89.7,64.2,29.71,SW,220,18.0,18.0,43,0.00,,---,0.00,660.00,VWS V14.01,2013-08-20 21:00:00,
2013-08-20 16:05:00,89.5,66.0,29.71,South,175,17.0,24.0,46,0.00,,---,0.00,648.00,VWS V14.01,2013-08-20 21:05:00,
2013-08-20 16:06:00,89.5,66.0,29.71,South,191,17.0,17.0,46,0.00,,---,0.00,648.00,VWS V14.01,2013-08-20 21:06:00,
2013-08-20 16:10:00,89.5,65.4,29.71,South,172,18.0,21.0,45,0.00,,---,0.00,630.00,VWS V14.01,2013-08-20 21:10:00,
2013-08-20 16:11:00,89.5,65.4,29.71,SSW,202,15.0,18.0,45,0.00,,---,0.00,630.00,VWS V14.01,2013-08-20 21:11:00,
2013-08-20 16:15:00,89.7,64.2,29.71,SW,217,12.0,24.0,43,0.00,,---,0.00,618.00,VWS V14.01,2013-08-20 21:15:00,
2013-08-20 16:16:00,89.7,64.2,29.71,SSW,198,17.0,17.0,43,0.00,,---,0.00,618.00,VWS V14.01,2013-08-20 21:16:00,
2013-08-20 16:20:00,89.7,64.9,29.71,SW,217,17.0,20.0,44,0.00,,---,0.00,607.00,VWS V14.01,2013-08-20 21:20:00,
2013-08-20 16:21:00,89.7,64.9,29.71,SW,229,18.0,20.0,44,0.00,,---,0.00,607.00,VWS V14.01,2013-08-20 21:21:00,
2013-08-20 16:25:00,89.7,65.6,29.71,SSW,196,12.0,20.0,45,0.00,,---,0.00,593.00,VWS V14.01,2013-08-20 21:25:00,
2013-08-20 16:26:00,89.7,65.6,29.71,NNW,344,13.0,16.0,45,0.00,,---,0.00,593.00,VWS V14.01,2013-08-20 21:26:00,
2013-08-20 16:30:00,89.9,65.1,29.71,SSE,152,9.0,19.0,44,0.00,,---,0.00,579.00,VWS V14.01,2013-08-20 21:30:00,
2013-08-20 16:31:00,89.9,65.1,29.71,South,176,11.0,12.0,44,0.00,,---,0.00,579.00,VWS V14.01,2013-08-20 21:31:00,
2013-08-20 16:35:00,89.7,64.2,29.71,South,175,20.0,20.0,43,0.00,,---,0.00,567.00,VWS V14.01,2013-08-20 21:35:00,
2013-08-20 16:36:00,89.7,64.2,29.71,West,268,14.0,20.0,43,0.00,,---,0.00,567.00,VWS V14.01,2013-08-20 21:36:00,
2013-08-20 16:40:00,89.7,65.6,29.71,SSW,195,13.0,20.0,45,0.00,,---,0.00,563.00,VWS V14.01,2013-08-20 21:40:00,
2013-08-20 16:41:00,89.7,65.6,29.71,SSW,192,12.0,17.0,45,0.00,,---,0.00,563.00,VWS V14.01,2013-08-20 21:41:00,
2013-08-20 16:45:00,89.9,67.0,29.70,NNW,329,16.0,17.0,47,0.00,,---,0.00,549.00,VWS V14.01,2013-08-20 21:45:00,
2013-08-20 16:46:00,89.9,67.0,29.70,South,188,14.0,16.0,47,0.00,,---,0.00,549.00,VWS V14.01,2013-08-20 21:46:00,
2013-08-20 16:50:00,89.9,65.7,29.70,SW,226,14.0,16.0,45,0.00,,---,0.00,533.00,VWS V14.01,2013-08-20 21:50:00,
2013-08-20 16:51:00,89.9,65.7,29.70,South,169,14.0,19.0,45,0.00,,---,0.00,533.00,VWS V14.01,2013-08-20 21:51:00,
2013-08-20 16:55:00,89.3,65.8,29.70,South,182,6.0,21.0,46,0.00,,---,0.00,519.00,VWS V14.01,2013-08-20 21:55:00,
2013-08-20 16:56:00,89.3,65.8,29.70,South,174,9.0,11.0,46,0.00,,---,0.00,519.00,VWS V14.01,2013-08-20 21:56:00,
2013-08-20 17:00:00,89.3,65.8,29.70,SSE,168,11.0,18.0,46,0.00,,---,0.00,507.00,VWS V14.01,2013-08-20 22:00:00,
2013-08-20 17:01:00,89.3,66.4,29.70,South,178,13.0,17.0,47,0.00,,---,0.00,507.00,VWS V14.01,2013-08-20 22:01:00,
2013-08-20 17:05:00,89.5,66.0,29.70,West,264,13.0,17.0,46,0.00,,---,0.00,494.00,VWS V14.01,2013-08-20 22:05:00,
2013-08-20 17:06:00,89.5,66.0,29.70,WSW,240,11.0,17.0,46,0.00,,---,0.00,494.00,VWS V14.01,2013-08-20 22:06:00,
2013-08-20 17:10:00,89.5,66.0,29.70,South,172,11.0,19.0,46,0.00,,---,0.00,473.00,VWS V14.01,2013-08-20 22:10:00,
2013-08-20 17:11:00,89.5,65.4,29.70,South,169,13.0,17.0,45,0.00,,---,0.00,473.00,VWS V14.01,2013-08-20 22:11:00,
2013-08-20 17:15:00,89.3,65.2,29.70,NW,309,13.0,20.0,45,0.00,,---,0.00,459.00,VWS V14.01,2013-08-20 22:15:00,
2013-08-20 17:16:00,89.3,65.2,29.70,SSE,167,20.0,20.0,45,0.00,,---,0.00,457.00,VWS V14.01,2013-08-20 22:16:00,
2013-08-20 17:20:00,89.0,65.6,29.70,South,191,13.0,20.0,46,0.00,,---,0.00,445.00,VWS V14.01,2013-08-20 22:20:00,
2013-08-20 17:21:00,89.0,65.6,29.70,South,178,11.0,16.0,46,0.00,,---,0.00,445.00,VWS V14.01,2013-08-20 22:21:00,
2013-08-20 17:25:00,89.0,65.6,29.70,WNW,291,10.0,19.0,46,0.00,,---,0.00,431.00,VWS V14.01,2013-08-20 22:25:00,
2013-08-20 17:26:00,89.0,66.2,29.70,SSW,199,11.0,16.0,47,0.00,,---,0.00,431.00,VWS V14.01,2013-08-20 22:26:00,
2013-08-20 17:30:00,89.0,66.2,29.70,South,181,12.0,18.0,47,0.00,,---,0.00,417.00,VWS V14.01,2013-08-20 22:30:00,
2013-08-20 17:31:00,89.0,66.8,29.70,WSW,250,8.0,13.0,48,0.00,,---,0.00,415.00,VWS V14.01,2013-08-20 22:31:00,
2013-08-20 17:35:00,89.0,65.6,29.70,SW,216,10.0,19.0,46,0.00,,---,0.00,403.00,VWS V14.01,2013-08-20 22:35:00,
2013-08-20 17:36:00,89.0,66.2,29.70,SW,223,13.0,18.0,47,0.00,,---,0.00,398.00,VWS V14.01,2013-08-20 22:36:00,
2013-08-20 17:40:00,88.8,66.0,29.70,SW,227,15.0,21.0,47,0.00,,---,0.00,396.00,VWS V14.01,2013-08-20 22:40:00,
2013-08-20 17:41:00,88.8,66.0,29.70,South,191,16.0,17.0,47,0.00,,---,0.00,394.00,VWS V14.01,2013-08-20 22:41:00,
2013-08-20 17:45:00,88.8,66.0,29.70,SSW,205,8.0,18.0,47,0.00,,---,0.00,384.00,VWS V14.01,2013-08-20 22:45:00,
2013-08-20 17:46:00,88.8,66.6,29.70,SSW,198,11.0,12.0,48,0.00,,---,0.00,377.00,VWS V14.01,2013-08-20 22:46:00,
2013-08-20 17:50:00,88.8,66.6,29.70,SSW,196,13.0,17.0,48,0.00,,---,0.00,375.00,VWS V14.01,2013-08-20 22:50:00,
2013-08-20 17:51:00,88.8,66.6,29.70,SSW,196,13.0,13.0,48,0.00,,---,0.00,375.00,VWS V14.01,2013-08-20 22:51:00,
2013-08-20 17:55:00,88.8,66.0,29.70,West,278,12.0,16.0,47,0.00,,---,0.00,354.00,VWS V14.01,2013-08-20 22:55:00,
2013-08-20 17:56:00,88.8,66.6,29.70,South,184,16.0,16.0,48,0.00,,---,0.00,350.00,VWS V14.01,2013-08-20 22:56:00,
2013-08-20 18:00:00,88.6,65.8,29.70,South,191,12.0,16.0,47,0.00,,---,0.00,336.00,VWS V14.01,2013-08-20 23:00:00,
2013-08-20 18:01:00,88.6,65.8,29.70,SSW,200,11.0,16.0,47,0.00,,---,0.00,334.00,VWS V14.01,2013-08-20 23:01:00,
2013-08-20 18:05:00,88.6,65.8,29.70,SSW,210,10.0,18.0,47,0.00,,---,0.00,322.00,VWS V14.01,2013-08-20 23:05:00,
2013-08-20 18:06:00,88.4,65.6,29.70,SSW,198,8.0,18.0,47,0.00,,---,0.00,306.00,VWS V14.01,2013-08-20 23:06:00,
2013-08-20 18:10:00,88.4,66.2,29.70,SSE,154,8.0,18.0,48,0.00,,---,0.00,294.00,VWS V14.01,2013-08-20 23:10:00,
2013-08-20 18:11:00,88.2,66.1,29.70,SSW,203,7.0,10.0,48,0.00,,---,0.00,292.00,VWS V14.01,2013-08-20 23:11:00,
2013-08-20 18:15:00,88.2,66.1,29.70,South,176,12.0,14.0,48,0.00,,---,0.00,276.00,VWS V14.01,2013-08-20 23:15:00,
2013-08-20 18:16:00,88.2,66.1,29.70,SSE,155,5.0,12.0,48,0.00,,---,0.00,274.00,VWS V14.01,2013-08-20 23:16:00,
2013-08-20 18:20:00,88.2,66.6,29.70,South,189,6.0,14.0,49,0.00,,---,0.00,260.00,VWS V14.01,2013-08-20 23:20:00,
2013-08-20 18:21:00,88.0,66.5,29.70,SSW,203,14.0,14.0,49,0.00,,---,0.00,259.00,VWS V14.01,2013-08-20 23:21:00,
2013-08-20 18:26:00,88.0,65.9,29.70,West,260,13.0,14.0,48,0.00,,---,0.00,241.00,VWS V14.01,2013-08-20 23:26:00,
2013-08-20 18:30:00,87.8,65.7,29.70,SSW,208,12.0,17.0,48,0.00,,---,0.00,229.00,VWS V14.01,2013-08-20 23:30:00,
2013-08-20 18:31:00,87.6,66.1,29.70,South,184,16.0,16.0,49,0.00,,---,0.00,225.00,VWS V14.01,2013-08-20 23:31:00,
2013-08-20 18:35:00,87.4,65.9,29.70,SSW,195,10.0,16.0,49,0.00,,---,0.00,211.00,VWS V14.01,2013-08-20 23:35:00,
2013-08-20 18:37:00,87.4,66.5,29.70,South,189,7.0,12.0,50,0.00,,---,0.00,208.00,VWS V14.01,2013-08-20 23:37:00,
2013-08-20 18:40:00,87.2,67.4,29.70,WSW,254,7.0,13.0,52,0.00,,---,0.00,204.00,VWS V14.01,2013-08-20 23:40:00,
2013-08-20 18:42:00,87.2,67.4,29.70,WSW,250,11.0,11.0,52,0.00,,---,0.00,202.00,VWS V14.01,2013-08-20 23:42:00,
2013-08-20 18:45:00,87.0,66.7,29.70,South,176,7.0,14.0,51,0.00,,---,0.00,174.00,VWS V14.01,2013-08-20 23:45:00,
2013-08-20 18:47:00,86.7,67.0,29.70,SSW,192,9.0,14.0,52,0.00,,---,0.00,162.00,VWS V14.01,2013-08-20 23:47:00,
2013-08-20 18:50:00,86.5,66.8,29.70,South,189,7.0,14.0,52,0.00,,---,0.00,123.00,VWS V14.01,2013-08-20 23:50:00,
2013-08-20 18:52:00,86.5,67.3,29.70,SSW,203,10.0,10.0,53,0.00,,---,0.00,120.00,VWS V14.01,2013-08-20 23:52:00,
2013-08-20 18:55:00,86.1,67.5,29.70,South,189,7.0,11.0,54,0.00,,---,0.00,107.00,VWS V14.01,2013-08-20 23:55:00,
2013-08-20 18:57:00,85.9,67.3,29.70,South,188,7.0,10.0,54,0.00,,---,0.00,107.00,VWS V14.01,2013-08-20 23:57:00,
2013-08-20 19:00:00,85.7,67.7,29.70,SSW,196,6.0,11.0,55,0.00,,---,0.00,107.00,VWS V14.01,2013-08-21 00:00:00,
2013-08-20 19:02:00,85.5,67.5,29.70,South,189,7.0,8.0,55,0.00,,---,0.00,102.00,VWS V14.01,2013-08-21 00:02:00,
2013-08-20 19:05:00,85.3,67.8,29.70,South,176,6.0,9.0,56,0.00,,---,0.00,90.00,VWS V14.01,2013-08-21 00:05:00,
2013-08-20 19:07:00,85.1,68.2,29.70,South,175,5.0,7.0,57,0.00,,---,0.00,79.00,VWS V14.01,2013-08-21 00:07:00,
2013-08-20 19:10:00,84.7,67.8,29.70,South,178,7.0,8.0,57,0.00,,---,0.00,81.00,VWS V14.01,2013-08-21 00:10:00,
2013-08-20 19:12:00,84.7,67.8,29.70,South,186,7.0,7.0,57,0.00,,---,0.00,79.00,VWS V14.01,2013-08-21 00:12:00,
2013-08-20 19:15:00,84.3,67.4,29.70,South,176,8.0,8.0,57,0.00,,---,0.00,84.00,VWS V14.01,2013-08-21 00:15:00,
2013-08-20 19:17:00,84.3,67.9,29.70,South,175,7.0,8.0,58,0.00,,---,0.00,84.00,VWS V14.01,2013-08-21 00:17:00,
2013-08-20 19:20:00,84.0,67.7,29.70,South,171,7.0,8.0,58,0.00,,---,0.00,72.00,VWS V14.01,2013-08-21 00:20:00,
2013-08-20 19:22:00,84.0,67.7,29.70,South,171,7.0,8.0,58,0.00,,---,0.00,70.00,VWS V14.01,2013-08-21 00:22:00,
2013-08-20 19:25:00,83.8,67.5,29.70,South,171,6.0,8.0,58,0.00,,---,0.00,62.00,VWS V14.01,2013-08-21 00:25:00,
2013-08-20 19:27:00,83.6,67.3,29.70,SSE,162,5.0,7.0,58,0.00,,---,0.00,60.00,VWS V14.01,2013-08-21 00:27:00,
2013-08-20 19:30:00,83.4,67.1,29.70,SSE,164,5.0,7.0,58,0.00,,---,0.00,56.00,VWS V14.01,2013-08-21 00:30:00,
2013-08-20 19:32:00,83.4,67.1,29.70,SSE,167,6.0,7.0,58,0.00,,---,0.00,53.00,VWS V14.01,2013-08-21 00:32:00,
2013-08-20 19:35:00,83.2,66.9,29.70,South,169,5.0,8.0,58,0.00,,---,0.00,51.00,VWS V14.01,2013-08-21 00:35:00,
2013-08-20 19:37:00,83.0,66.7,29.70,WSW,246,4.0,8.0,58,0.00,,---,0.00,49.00,VWS V14.01,2013-08-21 00:37:00,
2013-08-20 19:40:00,82.8,66.5,29.70,SSE,162,5.0,8.0,58,0.00,,---,0.00,56.00,VWS V14.01,2013-08-21 00:40:00,
2013-08-20 19:42:00,82.8,66.5,29.70,WSW,250,6.0,7.0,58,0.00,,---,0.00,55.00,VWS V14.01,2013-08-21 00:42:00,
2013-08-20 19:45:00,82.6,66.8,29.70,SW,219,6.0,8.0,59,0.00,,---,0.00,42.00,VWS V14.01,2013-08-21 00:45:00,
2013-08-20 19:47:00,82.4,66.7,29.70,SSE,165,6.0,8.0,59,0.00,,---,0.00,44.00,VWS V14.01,2013-08-21 00:47:00,
2013-08-20 19:50:00,82.2,66.5,29.70,SW,236,6.0,8.0,59,0.00,,---,0.00,40.00,VWS V14.01,2013-08-21 00:50:00,
2013-08-20 19:52:00,82.0,66.3,29.70,NW,308,5.0,6.0,59,0.00,,---,0.00,37.00,VWS V14.01,2013-08-21 00:52:00,
2013-08-20 19:55:00,81.8,66.6,29.70,SSW,199,6.0,6.0,60,0.00,,---,0.00,35.00,VWS V14.01,2013-08-21 00:55:00,
2013-08-20 19:57:00,81.8,66.6,29.70,South,171,3.0,6.0,60,0.00,,---,0.00,33.00,VWS V14.01,2013-08-21 00:57:00,
2013-08-20 20:00:00,81.6,66.9,29.70,NNW,335,5.0,6.0,61,0.00,,---,0.00,30.00,VWS V14.01,2013-08-21 01:00:00,
2013-08-20 20:02:00,81.4,66.7,29.70,NW,323,3.0,6.0,61,0.00,,---,0.00,28.00,VWS V14.01,2013-08-21 01:02:00,
2013-08-20 20:05:00,81.2,66.9,29.70,West,264,4.0,6.0,62,0.00,,---,0.00,25.00,VWS V14.01,2013-08-21 01:05:00,
2013-08-20 20:08:00,81.1,66.9,29.70,North,0,3.0,6.0,62,0.00,,---,0.00,16.00,VWS V14.01,2013-08-21 01:08:00,
2013-08-20 20:10:00,80.9,66.7,29.70,North,349,5.0,6.0,62,0.00,,---,0.00,14.00,VWS V14.01,2013-08-21 01:10:00,
2013-08-20 20:13:00,80.7,66.9,29.70,North,354,3.0,6.0,63,0.00,,---,0.00,12.00,VWS V14.01,2013-08-21 01:13:00,
2013-08-20 20:15:00,80.5,66.8,29.70,WSW,250,7.0,7.0,63,0.00,,---,0.00,11.00,VWS V14.01,2013-08-21 01:15:00,
2013-08-20 20:18:00,80.3,66.6,29.70,North,356,5.0,7.0,63,0.00,,---,0.00,9.00,VWS V14.01,2013-08-21 01:18:00,
2013-08-20 20:20:00,80.1,66.8,29.70,NNW,346,6.0,7.0,64,0.00,,---,0.00,9.00,VWS V14.01,2013-08-21 01:20:00,
2013-08-20 20:25:00,79.8,67.0,29.70,NNW,329,3.0,6.0,65,0.00,,---,0.00,0.00,VWS V14.01,2013-08-21 01:25:00,
2013-08-20 20:30:00,79.4,66.6,29.71,North,354,3.0,6.0,65,0.00,,---,0.00,0.00,VWS V14.01,2013-08-21 01:30:00,
2013-08-20 20:35:00,79.4,66.6,29.71,SSE,157,3.0,7.0,65,0.00,,---,0.00,0.00,VWS V14.01,2013-08-21 01:35:00,
2013-08-20 20:40:00,79.2,66.9,29.71,NNW,347,4.0,7.0,66,0.00,,---,0.00,0.00,VWS V14.01,2013-08-21 01:40:00,
2013-08-20 20:45:00,79.0,66.7,29.71,North,0,10.0,10.0,66,0.00,,---,0.00,0.00,VWS V14.01,2013-08-21 01:45:00,
2013-08-20 20:50:00,78.8,66.9,29.71,NNW,346,6.0,12.0,67,0.00,,---,0.00,0.00,VWS V14.01,2013-08-21 01:50:00,
2013-08-20 20:55:00,78.8,66.9,29.71,SSE,167,6.0,9.0,67,0.00,,---,0.00,0.00,VWS V14.01,2013-08-21 01:55:00,
2013-08-20 21:00:00,78.6,67.2,29.72,North,359,9.0,12.0,68,0.00,,---,0.00,0.00,VWS V14.01,2013-08-21 02:00:00,
2013-08-20 21:05:00,78.3,67.3,29.72,North,359,10.0,12.0,69,0.00,,---,0.00,0.00,VWS V14.01,2013-08-21 02:05:00,
2013-08-20 21:10:00,77.7,66.7,29.72,WSW,251,12.0,12.0,69,0.00,,---,0.00,0.00,VWS V14.01,2013-08-21 02:10:00,
2013-08-20 21:15:00,77.4,66.9,29.72,SW,233,12.0,13.0,70,0.00,,---,0.00,0.00,VWS V14.01,2013-08-21 02:15:00,
2013-08-20 21:20:00,77.2,66.7,29.72,North,349,8.0,12.0,70,0.00,,---,0.00,0.00,VWS V14.01,2013-08-21 02:20:00,
2013-08-20 21:25:00,77.0,66.9,29.72,North,352,7.0,12.0,71,0.00,,---,0.00,0.00,VWS V14.01,2013-08-21 02:25:00,
2013-08-20 21:30:00,76.8,67.1,29.73,NNW,343,8.0,11.0,72,0.00,,---,0.00,0.00,VWS V14.01,2013-08-21 02:30:00,
2013-08-20 21:35:00,76.7,67.0,29.73,SSE,150,7.0,7.0,72,0.00,,---,0.00,0.00,VWS V14.01,2013-08-21 02:35:00,
2013-08-20 21:40:00,76.7,67.4,29.73,NNW,344,7.0,7.0,73,0.00,,---,0.00,0.00,VWS V14.01,2013-08-21 02:40:00,
2013-08-20 21:45:00,76.5,67.2,29.73,NNW,336,6.0,7.0,73,0.00,,---,0.00,0.00,VWS V14.01,2013-08-21 02:45:00,
2013-08-20 21:50:00,76.3,67.0,29.73,North,0,8.0,8.0,73,0.00,,---,0.00,0.00,VWS V14.01,2013-08-21 02:50:00,
2013-08-20 21:55:00,76.1,67.2,29.73,North,352,8.0,8.0,74,0.00,,---,0.00,0.00,VWS V14.01,2013-08-21 02:55:00,
2013-08-20 22:00:00,76.1,66.8,29.74,North,353,9.0,9.0,73,0.00,,---,0.00,0.00,VWS V14.01,2013-08-21 03:00:00,
2013-08-20 22:05:00,76.3,67.0,29.74,North,0,6.0,12.0,73,0.00,,---,0.00,0.00,VWS V14.01,2013-08-21 03:05:00,
2013-08-20 22:06:00,76.3,67.0,29.74,NNW,346,7.0,8.0,73,0.00,,---,0.00,0.00,VWS V14.01,2013-08-21 03:06:00,
2013-08-20 22:10:00,76.3,66.6,29.74,North,356,8.0,11.0,72,0.00,,---,0.00,0.00,VWS V14.01,2013-08-21 03:10:00,
2013-08-20 22:11:00,76.3,66.6,29.74,NNW,340,5.0,11.0,72,0.00,,---,0.00,0.00,VWS V14.01,2013-08-21 03:11:00,
2013-08-20 22:15:00,76.3,66.6,29.73,North,0,6.0,11.0,72,0.00,,---,0.00,0.00,VWS V14.01,2013-08-21 03:15:00,
2013-08-20 22:16:00,76.3,66.6,29.73,NNW,336,9.0,9.0,72,0.00,,---,0.00,0.00,VWS V14.01,2013-08-21 03:16:00,
2013-08-20 22:20:00,76.3,66.2,29.73,West,281,6.0,11.0,71,0.00,,---,0.00,0.00,VWS V14.01,2013-08-21 03:20:00,
2013-08-20 22:21:00,76.3,66.2,29.73,NNW,337,5.0,8.0,71,0.00,,---,0.00,0.00,VWS V14.01,2013-08-21 03:21:00,
2013-08-20 22:25:00,76.3,66.2,29.73,North,0,6.0,11.0,71,0.00,,---,0.00,0.00,VWS V14.01,2013-08-21 03:25:00,
2013-08-20 22:26:00,76.3,66.2,29.73,SW,234,7.0,11.0,71,0.00,,---,0.00,0.00,VWS V14.01,2013-08-21 03:26:00,
2013-08-20 22:30:00,76.5,66.4,29.73,WNW,299,8.0,12.0,71,0.00,,---,0.00,0.00,VWS V14.01,2013-08-21 03:30:00,
2013-08-20 22:31:00,76.5,66.4,29.73,SW,234,7.0,8.0,71,0.00,,---,0.00,0.00,VWS V14.01,2013-08-21 03:31:00,
2013-08-20 22:35:00,76.5,66.4,29.73,WSW,243,10.0,12.0,71,0.00,,---,0.00,0.00,VWS V14.01,2013-08-21 03:35:00,
2013-08-20 22:36:00,76.5,66.4,29.73,NNW,346,6.0,10.0,71,0.00,,---,0.00,0.00,VWS V14.01,2013-08-21 03:36:00,
2013-08-20 22:40:00,76.5,66.4,29.73,NNW,328,7.0,11.0,71,0.00,,---,0.00,0.00,VWS V14.01,2013-08-21 03:40:00,
2013-08-20 22:41:00,76.5,66.4,29.73,NW,315,9.0,9.0,71,0.00,,---,0.00,0.00,VWS V14.01,2013-08-21 03:41:00,
2013-08-20 22:45:00,76.5,66.4,29.73,North,352,8.0,12.0,71,0.00,,---,0.00,0.00,VWS V14.01,2013-08-21 03:45:00,
2013-08-20 22:46:00,76.5,66.4,29.73,NNW,344,7.0,11.0,71,0.00,,---,0.00,0.00,VWS V14.01,2013-08-21 03:46:00,
2013-08-20 22:50:00,76.5,66.4,29.73,North,349,9.0,14.0,71,0.00,,---,0.00,0.00,VWS V14.01,2013-08-21 03:50:00,
2013-08-20 22:51:00,76.5,66.4,29.73,SW,226,7.0,12.0,71,0.00,,---,0.00,0.00,VWS V14.01,2013-08-21 03:51:00,
2013-08-20 22:55:00,76.5,66.4,29.73,South,185,6.0,14.0,71,0.00,,---,0.00,0.00,VWS V14.01,2013-08-21 03:55:00,
2013-08-20 22:56:00,76.5,66.4,29.73,SSW,200,11.0,12.0,71,0.00,,---,0.00,0.00,VWS V14.01,2013-08-21 03:56:00,
2013-08-20 23:00:00,76.5,66.0,29.74,SSE,165,6.0,16.0,70,0.00,,---,0.00,0.00,VWS V14.01,2013-08-21 04:00:00,
2013-08-20 23:01:00,76.5,66.0,29.74,South,179,8.0,13.0,70,0.00,,---,0.00,0.00,VWS V14.01,2013-08-21 04:01:00,
2013-08-20 23:02:00,76.5,66.0,29.74,SSW,192,7.0,14.0,70,0.00,,---,0.00,0.00,VWS V14.01,2013-08-21 04:02:00,
2013-08-20 23:03:00,76.5,66.0,29.74,SW,215,8.0,14.0,70,0.00,,---,0.00,0.00,VWS V14.01,2013-08-21 04:03:00,
2013-08-20 23:05:00,76.5,66.0,29.74,South,179,8.0,16.0,70,0.00,,---,0.00,0.00,VWS V14.01,2013-08-21 04:05:00,
2013-08-20 23:08:00,76.5,66.0,29.74,South,176,8.0,14.0,70,0.00,,---,0.00,0.00,VWS V14.01,2013-08-21 04:08:00,
2013-08-20 23:10:00,76.5,66.0,29.74,SSE,168,12.0,18.0,70,0.00,,---,0.00,0.00,VWS V14.01,2013-08-21 04:10:00,
2013-08-20 23:13:00,76.5,65.6,29.74,ESE,110,13.0,16.0,69,0.00,,---,0.00,0.00,VWS V14.01,2013-08-21 04:13:00,
2013-08-20 23:15:00,76.5,65.6,29.74,WNW,301,14.0,16.0,69,0.00,,---,0.00,0.00,VWS V14.01,2013-08-21 04:15:00,
2013-08-20 23:18:00,76.5,65.6,29.74,SW,227,10.0,19.0,69,0.00,,---,0.00,0.00,VWS V14.01,2013-08-21 04:18:00,
2013-08-20 23:20:00,76.5,65.6,29.74,South,179,12.0,19.0,69,0.00,,---,0.00,0.00,VWS V14.01,2013-08-21 04:20:00,
2013-08-20 23:23:00,76.3,65.8,29.74,North,0,7.0,14.0,70,0.00,,---,0.00,0.00,VWS V14.01,2013-08-21 04:23:00,
2013-08-20 23:25:00,76.3,65.8,29.74,SE,131,11.0,16.0,70,0.00,,---,0.00,0.00,VWS V14.01,2013-08-21 04:25:00,
2013-08-20 23:28:00,76.3,65.8,29.74,WSW,244,12.0,14.0,70,0.00,,---,0.00,0.00,VWS V14.01,2013-08-21 04:28:00,
2013-08-20 23:30:00,76.1,65.6,29.73,North,349,9.0,17.0,70,0.00,,---,0.00,0.00,VWS V14.01,2013-08-21 04:30:00,
2013-08-20 23:33:00,76.1,65.6,29.73,SSW,193,11.0,14.0,70,0.00,,---,0.00,0.00,VWS V14.01,2013-08-21 04:33:00,
2013-08-20 23:35:00,76.0,65.9,29.73,WSW,250,15.0,15.0,71,0.00,,---,0.00,0.00,VWS V14.01,2013-08-21 04:35:00,
2013-08-20 23:38:00,76.0,65.9,29.73,SW,233,10.0,15.0,71,0.00,,---,0.00,0.00,VWS V14.01,2013-08-21 04:38:00,
2013-08-20 23:40:00,75.8,66.1,29.73,SW,234,12.0,15.0,72,0.00,,---,0.00,0.00,VWS V14.01,2013-08-21 04:40:00,
2013-08-20 23:43:00,75.8,66.1,29.73,SSW,198,10.0,13.0,72,0.00,,---,0.00,0.00,VWS V14.01,2013-08-21 04:43:00,
2013-08-20 23:45:00,75.8,66.1,29.73,NW,319,11.0,16.0,72,0.00,,---,0.00,0.00,VWS V14.01,2013-08-21 04:45:00,
2013-08-20 23:48:00,75.8,66.1,29.73,SSW,206,11.0,20.0,72,0.00,,---,0.00,0.00,VWS V14.01,2013-08-21 04:48:00,
2013-08-20 23:50:00,75.6,65.9,29.73,SSW,198,11.0,20.0,72,0.00,,---,0.00,0.00,VWS V14.01,2013-08-21 04:50:00,
2013-08-20 23:53:00,75.6,65.9,29.73,South,169,11.0,13.0,72,0.00,,---,0.00,0.00,VWS V14.01,2013-08-21 04:53:00,
2013-08-20 23:55:00,75.6,65.9,29.73,NW,312,12.0,14.0,72,0.00,,---,0.00,0.00,VWS V14.01,2013-08-21 04:55:00,
2013-08-20 23:58:00,75.6,65.9,29.73,SW,215,9.0,13.0,72,0.00,,---,0.00,0.00,VWS V14.01,2013-08-21 04:58:00,